{"data":{"norad_id":55975,"epoch":"2026-09-20T05:17:31.417728Z","epoch_age_seconds":38559,"freshness":"FRESH","line1":"1 55975U 23039C   26263.22050252  .00012255  00000+0  22301-3 0  9990","line2":"2 55975  97.5249  80.7048 0003687 117.3324 242.8303 15.49654685195528","mean_motion":15.49654685,"eccentricity":0.0003687,"inclination_deg":97.5249,"raan_deg":80.7048,"arg_perigee_deg":117.3324,"mean_anomaly_deg":242.8303,"bstar":0.00022301,"rev_number":19552,"period_min":92.923927758783,"perigee_km":415.22980904046,"apogee_km":420.24108538303,"semimajor_km":6795.8724472117,"source":"CELESTRAK","updated_at":"2026-09-20T09:00:33.222694Z"}}